STARLINK-3879 (52473 NORAD) Tracking and Keplerian Element Data

This shows tracking and keplerian element data for the satellite.

Feedback or suggestion? Click here.




ElementValue
Catalog52473
NameSTARLINK-3879
Epoch Orbit130
Epoch Day192.91667824
Epoch Year2022
RAAN300.7384
Inclination53.2172
Eccentricity0.0001542
Argument of Perigee40.2566
Mean Anonmoly337.5015
Mean Motion15.28757053
Decay Rate-0.01068454
L11 52473U 22049Y 22192.91667824 -.01068454 00000+0 -41145-1 0 9992
L22 52473 53.2172 300.7384 0001542 40.2566 337.5015 15.28757053 1304

Live tracking and technical data element details for STARLINK-3879 (NORAD 52473). STARLINK-3879 can be tracked NOW for your location showing map with azimuth and elevation plus other details from your city location.

Track the satellite on the map from your city or location and see movement details for azimuth, elevation, latitude, longitude, range, height, and movement on the map or in text.







IsCatalogInMostPopularTable: catalog: 52473, numindb: 6
Update: records affected: 1



GetName: 52473 STARLINK-3879

Hit Count: updated at: Sun, 14 Aug 2022 00:06:35 GMT